Deering, AK

3:43 PM AKDT on May 20, 2018 (GMT -0800)
Deering (New)

Weather History for PADE - February, 2013

Change the Weather History Date:

Monday, February 25, 2013

  Actual Average (PAOT) Record (PAOT)
Temperature  
Mean Temperature -25 °F -  
Max Temperature -18 °F 8 °F 34 °F (1989)
Min Temperature -36 °F -7 °F -43 °F (1968)
Degree Days  
Heating Degree Days 90    
Moisture  
Dew Point -28 °F    
Average Humidity 72    
Maximum Humidity 77    
Minimum Humidity 67    
Precipitation  
Precipitation 0.00 in - - ()
Sea Level Pressure  
Sea Level Pressure 29.94 in    
Wind  
Wind Speed 8 mph (WSW)    
Max Wind Speed 16 mph    
Max Gust Speed -    
Visibility 5 miles    
Events Snow    
Averages and records for this station are not official NWS values.
T = Trace of Precipitation, MM = Missing Value Source: NWS Daily Summary

Daily Weather History Graph

Daily Weather History Graph

Search for Another Location

Airport or City:

Astronomy

Feb. 25, 2013 Rise Set
Actual Time 9:17 AM AKST 6:52 PM AKST
Civil Twilight 8:24 AM AKST 7:45 PM AKST
Nautical Twilight 7:25 AM AKST 8:44 PM AKST
Astronomical Twilight 6:24 AM AKST 9:45 PM AKST
Moon 7:49 PM AKST (2/25) 8:34 AM AKST (2/25)
Length of Visible Light 11h 20m
Length of Day
9h 35m
Full, 100% of the Moon is Illuminated
Feb 25
Full
Mar 4
Last Quarter
Mar 11
New
Mar 19
First Quarter
Mar 27
Full

Hourly Weather History & Observations

Time (AKST) Temp. Windchill Dew Point Humidity Pressure Visibility Wind Dir Wind Speed Gust Speed Precip Events Conditions
12:53 AM -20.9 °F -38.1 °F -27.0 °F 73% 29.80 in 5.0 mi WSW 6.9 mph - 0.00 in Snow Light Snow
1:53 AM -20.9 °F -31.7 °F -27.0 °F 73% 29.81 in 4.0 mi SW 3.5 mph - 0.00 in Snow Light Snow
2:53 AM -20.9 °F -36.4 °F -27.0 °F 73% 29.81 in 4.0 mi West 5.8 mph - 0.00 in Snow Light Snow
3:53 AM -22.0 °F -39.4 °F -29.0 °F 70% 29.82 in 7.0 mi West 6.9 mph - 0.00 in   Overcast
4:53 AM -23.1 °F -36.8 °F -29.0 °F 74% 29.83 in 9.0 mi South 4.6 mph - N/A   Overcast
5:53 AM -23.1 °F -38.9 °F -29.0 °F 74% 29.83 in 10.0 mi SW 5.8 mph - N/A   Overcast
6:53 AM -22.0 °F -37.7 °F -27.9 °F 74% 29.86 in 10.0 mi WSW 5.8 mph - N/A   Overcast
7:42 AM -23.8 °F -41.6 °F -29.2 °F 76% 29.85 in 2.5 mi WSW 6.9 mph - 0.00 in Snow Light Snow
7:53 AM -23.1 °F -40.7 °F -29.0 °F 74% 29.86 in 2.0 mi SW 6.9 mph - 0.00 in Snow Light Snow
8:04 AM -22.0 °F -39.4 °F -29.2 °F 69% 29.86 in 2.0 mi SW 6.9 mph - 0.00 in Snow Light Snow
8:22 AM -23.8 °F -41.6 °F -29.2 °F 76% 29.87 in 3.0 mi SW 6.9 mph - 0.00 in Snow Light Snow
8:53 AM -23.1 °F -40.7 °F -29.0 °F 74% 29.87 in 5.0 mi SW 6.9 mph - 0.00 in   Haze
9:24 AM -22.0 °F -41.0 °F -27.4 °F 76% 29.88 in 2.5 mi WSW 8.1 mph - 0.00 in Snow Light Snow
9:43 AM -23.8 °F -43.2 °F -29.2 °F 76% 29.89 in 3.0 mi WSW 8.1 mph - 0.00 in   Haze
9:53 AM -24.0 °F -44.8 °F -29.9 °F 74% 29.90 in 3.0 mi WSW 9.2 mph - 0.00 in   Haze
10:15 AM -23.8 °F -46.9 °F -31.0 °F 69% 29.90 in 3.0 mi WSW 11.5 mph - N/A   Haze
10:37 AM -23.8 °F -43.2 °F -29.2 °F 76% 29.90 in 2.5 mi West 8.1 mph - N/A   Haze
10:53 AM -23.1 °F -43.7 °F -29.0 °F 74% 29.91 in 2.0 mi WSW 9.2 mph - 0.00 in   Overcast
11:20 AM -22.0 °F -39.4 °F -27.4 °F 76% 29.91 in 1.8 mi WSW 6.9 mph - 0.00 in   Overcast
11:28 AM -22.0 °F -41.0 °F -29.2 °F 69% 29.91 in 2.0 mi West 8.1 mph - 0.00 in   Overcast
11:53 AM -22.0 °F -44.7 °F -29.0 °F 70% 29.93 in 3.0 mi West 11.5 mph - 0.00 in   Overcast
12:53 PM -22.0 °F -43.6 °F -27.9 °F 74% 29.95 in 4.0 mi West 10.4 mph - 0.00 in   Overcast
1:01 PM -20.2 °F -40.1 °F -27.4 °F 69% 29.95 in 4.0 mi West 9.2 mph - 0.00 in   Haze
1:26 PM -22.0 °F -43.6 °F -27.4 °F 76% 29.95 in 4.0 mi West 10.4 mph - 0.00 in   Haze
1:41 PM -22.0 °F -45.7 °F -29.2 °F 69% 29.95 in 3.0 mi West 12.7 mph - 0.00 in   Haze
1:47 PM -22.0 °F -48.4 °F -27.4 °F 76% 29.96 in 2.5 mi West 16.1 mph - 0.00 in   Haze
1:53 PM -20.9 °F -45.3 °F -27.9 °F 70% 29.96 in 3.0 mi West 13.8 mph - 0.00 in   Haze
2:21 PM -20.2 °F -41.3 °F -27.4 °F 69% 29.97 in 4.0 mi West 10.4 mph - N/A   Haze
2:32 PM -20.2 °F -41.3 °F -27.4 °F 69% 29.97 in 5.0 mi West 10.4 mph - N/A   Haze
2:49 PM -20.2 °F -42.4 °F -27.4 °F 69% 29.98 in 5.0 mi West 11.5 mph - N/A   Haze
2:53 PM -20.9 °F -43.3 °F -27.0 °F 73% 29.98 in 5.0 mi West 11.5 mph - N/A   Haze
3:38 PM -20.2 °F -42.4 °F -27.4 °F 69% 29.99 in 2.0 mi West 11.5 mph - 0.00 in   Overcast
3:53 PM -20.9 °F -41.0 °F -27.9 °F 70% 30.00 in 4.0 mi West 9.2 mph - 0.00 in   Haze
4:53 PM -18.9 °F -40.8 °F -26.0 °F 70% 30.01 in 2.5 mi West 11.5 mph - 0.00 in Snow Light Snow
5:03 PM -18.4 °F -40.2 °F -25.6 °F 70% 30.01 in 1.8 mi West 11.5 mph - 0.00 in Snow Light Snow
5:15 PM -18.4 °F -40.2 °F -25.6 °F 70% 30.01 in 2.5 mi West 11.5 mph - 0.00 in Snow Light Snow
5:33 PM -18.4 °F -41.2 °F -25.6 °F 70% 30.02 in 4.0 mi West 12.7 mph - 0.00 in Snow Light Snow
5:53 PM -18.0 °F -42.5 °F -26.0 °F 67% 30.03 in 9.0 mi West 15.0 mph - 0.00 in   Overcast
6:53 PM -23.1 °F -42.3 °F -29.9 °F 70% 30.05 in 10.0 mi West 8.1 mph - N/A   Clear
7:53 PM -27.0 °F -48.5 °F -32.1 °F 77% 30.07 in 10.0 mi WSW 9.2 mph - N/A   Clear
8:53 PM -31.0 °F -48.4 °F - N/A% 30.06 in 10.0 mi SW 5.8 mph - N/A   Clear
9:53 PM -32.1 °F -53.3 °F - N/A% 30.07 in 10.0 mi SSW 8.1 mph - N/A   Clear
10:53 PM -32.1 °F -44.5 °F - N/A% 30.09 in 10.0 mi SSW 3.5 mph - N/A   Clear
11:53 PM -36.0 °F - - N/A% 30.10 in 10.0 mi Calm Calm - N/A   Clear